{"data":{"norad_id":57290,"epoch":"2026-05-24T12:51:09.803232Z","epoch_age_seconds":122354,"freshness":"FRESH","line1":"1 57290U 23096A   26144.53553013  .00026621  00000+0  10970-2 0  9990","line2":"2 57290  42.9929 158.5095 0002988  71.6975 288.4200 15.23599572159170","mean_motion":15.23599572,"eccentricity":0.0002988,"inclination_deg":42.9929,"raan_deg":158.5095,"arg_perigee_deg":71.6975,"mean_anomaly_deg":288.42,"bstar":0.001097,"rev_number":15917,"period_min":94.513022086882,"perigee_km":492.94017884405,"apogee_km":497.04756185217,"semimajor_km":6873.1308703481,"source":"CELESTRAK","updated_at":"2026-05-25T13:38:18.282772Z"}}